Doha, Qatar

5:11 PM +03 on September 19, 2017 (GMT +0300)
Doha International

Weather History for OTBD - July, 2012

Change the Weather History Date:

Friday, July 13, 2012

  Actual Average Record
Temperature  
Mean Temperature 100 °F -  
Max Temperature 108 °F 106 °F 120 °F (2010)
Min Temperature 91 °F 84 °F 86 °F (1997)
Cooling Degree Days 34    
Growing Degree Days 50 (Base 50)    
Moisture  
Dew Point 68 °F    
Average Humidity 40    
Maximum Humidity 66    
Minimum Humidity 19    
Precipitation  
Precipitation 0.00 in 0.00 in - ()
Sea Level Pressure  
Sea Level Pressure 29.46 in    
Wind  
Wind Speed 4 mph ()    
Max Wind Speed 12 mph    
Max Gust Speed -    
Visibility 5.3 miles    
Events      
Averages and records for this station are not official NWS values.
T = Trace of Precipitation, MM = Missing Value Source: Averaged Metar Reports

Daily Weather History Graph

Daily Weather History Graph

Search for Another Location

Airport or City:

Trip Planner

Search our weather history database for the weather conditions in past years. The results will help you decide how hot, cold, wet, or windy it might be!

Date:

Astronomy

Jul. 13, 2012 Rise Set
Actual Time 4:51 AM +03 6:26 PM +03
Civil Twilight 4:26 AM +03 6:52 PM +03
Nautical Twilight 3:56 AM +03 7:22 PM +03
Astronomical Twilight 3:24 AM +03 7:54 PM +03
Moon 12:06 AM +03 (7/13) 1:40 PM +03 (7/13)
Length of Visible Light 14h 25m
Length of Day
13h 34m
Waning Crescent, 29% of the Moon is Illuminated
Jul 13
Waning Crescent
Jul 19
New
Jul 26
First Quarter
Aug 2
Full
Aug 9
Last Quarter

Hourly Weather History & Observations

Time (+03) Temp. Heat Index Dew Point Humidity Pressure Visibility Wind Dir Wind Speed Gust Speed Precip Events Conditions
12:00 AM 93.2 °F 93.3 °F 60.8 °F 34% 29.44 in - Variable 1.2 mph - N/A   Clear
12:30 AM 93.2 °F 94.9 °F 64.4 °F 38% 29.44 in - Variable 2.3 mph - N/A   Clear
1:00 AM 93.2 °F 94.9 °F 64.4 °F 38% 29.44 in 5.6 mi Variable 2.3 mph - N/A   Unknown
1:30 AM 93.2 °F 96.2 °F 66.2 °F 41% 29.44 in 5.0 mi SW 3.5 mph - N/A   Unknown
2:00 AM 91.4 °F 94.0 °F 66.2 °F 43% 29.44 in 5.0 mi SW 4.6 mph - N/A   Unknown
2:30 AM 91.4 °F 94.0 °F 66.2 °F 43% 29.44 in 5.0 mi SW 3.5 mph - N/A   Unknown
3:00 AM 92 °F - 65 °F 31% 29.45 in 5 mi WSW 3.5 mph - -   Widespread Dust
3:00 AM 91.4 °F 93.2 °F 64.4 °F 41% 29.44 in 5.0 mi WSW 3.5 mph - N/A   Unknown
3:30 AM 91.4 °F 93.2 °F 64.4 °F 41% 29.44 in 5.0 mi SW 4.6 mph - N/A   Unknown
4:00 AM 93.2 °F 94.9 °F 64.4 °F 38% 29.44 in 5.0 mi WSW 3.5 mph - N/A   Unknown
4:30 AM 93.2 °F 94.1 °F 62.6 °F 36% 29.44 in 5.0 mi WSW 3.5 mph - N/A   Unknown
5:00 AM 91.4 °F 92.1 °F 62.6 °F 38% 29.47 in 5.0 mi Calm Calm - N/A   Unknown
5:30 AM 91.4 °F 91.4 °F 60.8 °F 36% 29.47 in 5.0 mi West 3.5 mph - N/A   Unknown
6:00 AM 91.4 °F 93.2 °F 64.4 °F 41% 29.50 in 5.6 mi Variable 2.3 mph - N/A   Unknown
6:30 AM 93.2 °F 93.3 °F 60.8 °F 34% 29.50 in - WNW 3.5 mph - N/A   Clear
7:00 AM 96.8 °F 98.0 °F 62.6 °F 32% 29.50 in - WSW 3.5 mph - N/A   Clear
7:30 AM 96.8 °F 98.0 °F 62.6 °F 32% 29.50 in - West 3.5 mph - N/A   Clear
8:00 AM 98.6 °F 100.0 °F 62.6 °F 30% 29.53 in - SW 4.6 mph - N/A   Clear
8:30 AM 98.6 °F 101.0 °F 64.4 °F 32% 29.50 in - WSW 4.6 mph - N/A   Clear
9:00 AM 101 °F - 63 °F 20% 29.52 in 6 mi WSW 3.5 mph - -   Scattered Clouds
9:00 AM 102.2 °F 104.2 °F 62.6 °F 27% 29.50 in - WSW 3.5 mph - N/A   Clear
9:30 AM 104.0 °F 103.4 °F 57.2 °F 21% 29.50 in - Variable 2.3 mph - N/A   Clear
10:00 AM 107.6 °F 107.5 °F 57.2 °F 19% 29.50 in - NNW 4.6 mph - N/A   Clear
10:30 AM 105.8 °F 114.2 °F 69.8 °F 31% 29.50 in - East 8.1 mph - N/A   Clear
11:00 AM 107.6 °F 107.5 °F 57.2 °F 19% 29.50 in 5.0 mi NE 5.8 mph - N/A   Unknown
11:30 AM 105.8 °F 113.2 °F 68.0 °F 30% 29.50 in 5.0 mi ESE 8.1 mph - N/A   Unknown
12:00 PM 105.8 °F 111.5 °F 66.2 °F 28% 29.47 in 5.6 mi East 8.1 mph - N/A   Unknown
12:30 PM 107.6 °F 107.5 °F 57.2 °F 19% 29.47 in - ENE 9.2 mph - N/A   Clear
1:00 PM 102.2 °F 101.4 °F 57.2 °F 22% 29.47 in - East 11.5 mph - N/A   Clear
1:30 PM 104.0 °F 112.2 °F 69.8 °F 33% 29.44 in - East 9.2 mph - N/A   Clear
2:00 PM 102.2 °F 119.3 °F 77.0 °F 45% 29.44 in - East 11.5 mph - N/A   Clear
2:30 PM 100.4 °F 109.3 °F 71.6 °F 39% 29.44 in - East 8.1 mph - N/A   Clear
3:00 PM 102 °F - 71 °F 27% 29.45 in 6 mi ESE 9.2 mph - -  
3:00 PM 102.2 °F 110.0 °F 69.8 °F 35% 29.44 in - ESE 9.2 mph - N/A   Clear
3:30 PM 100.4 °F 109.3 °F 71.6 °F 39% 29.44 in - East 6.9 mph - N/A   Clear
4:00 PM 100.4 °F 109.3 °F 71.6 °F 39% 29.44 in - NE 9.2 mph - N/A   Clear
4:30 PM 98.6 °F 107.7 °F 71.6 °F 42% 29.44 in - NE 6.9 mph - N/A   Clear
5:00 PM 98.6 °F 105.5 °F 69.8 °F 39% 29.44 in - NNE 9.2 mph - N/A   Clear
5:30 PM 98.6 °F 105.5 °F 69.8 °F 39% 29.44 in - NE 9.2 mph - N/A   Clear
6:00 PM 96.8 °F 101.8 °F 68.0 °F 39% 29.44 in - ENE 6.9 mph - N/A   Clear
6:30 PM 96.8 °F 105.1 °F 71.6 °F 44% 29.44 in - ENE 5.8 mph - N/A   Clear
7:00 PM 95.0 °F 104.5 °F 73.4 °F 49% 29.44 in - ENE 4.6 mph - N/A   Clear
7:30 PM 93.2 °F 107.2 °F 77.0 °F 59% 29.47 in - NE 4.6 mph - N/A   Clear
8:00 PM 93.2 °F 110.2 °F 78.8 °F 63% 29.47 in - NNE 2.3 mph - N/A   Clear
8:30 PM 93.2 °F 110.2 °F 78.8 °F 63% 29.47 in 5.6 mi Variable 2.3 mph - N/A   Unknown
9:00 PM 92 °F - 79 °F 59% 29.49 in 6 mi 2.3 mph - -   Haze
9:00 PM 93.2 °F 110.2 °F 78.8 °F 63% 29.47 in 5.6 mi Variable 2.3 mph - N/A   Unknown
9:30 PM 91.4 °F 107.2 °F 78.8 °F 66% 29.47 in - Variable 1.2 mph - N/A   Clear
10:00 PM 93.2 °F 107.2 °F 77.0 °F 59% 29.47 in - SSW 3.5 mph - N/A   Clear
10:30 PM 93.2 °F 107.2 °F 77.0 °F 59% 29.47 in - SSW 4.6 mph - N/A   Clear
11:00 PM 91.4 °F 107.2 °F 78.8 °F 66% 29.44 in - SW 6.9 mph - N/A   Clear
11:30 PM 91.4 °F 102.5 °F 75.2 °F 59% 29.44 in - SW 6.9 mph - N/A   Clear